Location: Corcelles
(46.1547°N, 4.7234°E)
Time: 10:47:22
(UTC+00:00)

Cosmos 1725 Rocket - Pass Details

Date: 14 July 2020
Orbit: 963 x 989 km, 82.9° (Epoch: 05 August)

Event Time Altitude Azimuth Distance (km) Brightness Sun altitude
Exits shadow 01:21:05 24° 166° (SSE) 1,888 5.1 -18.9°
Maximum altitude 01:24:53 63° 93° (E) 1,082 4.3 -18.7°
Drops below altitude 10° 01:31:02 10° 14° (NNE) 2,736 7.6 -18.2°
Sets 01:33:35 0° 12° (NNE) 3,691 8.5 -18.0°
